Regional Weather Roundup
Issued by NWS State College, PA

Home | Current Version | Previous Version | Graphics & Text | Print | Product List | Glossary On
Versions: 1 2 3 4 5 6 7 8 9 10 11 12 13 14 15 16 17 18 19 20 21 22 23 24 25 26 27 28 29 30 31 32 33 34 35 36 37 38 39 40 41 42 43 44 45 46 47 48 49 50
000
ASUS41 KCTP 100110
RWRCTP

REGIONAL WEATHER ROUNDUP
NATIONAL WEATHER SERVICE STATE COLLEGE PA
900 PM EDT WED JUL 09 2014

Note: "fair" indicates few or no clouds below 12,000 feet with no
significant weather and/or obstructions to visibility.

* = STATION THAT DOES NOT REPORT PRECIPITATION /E.G. RAIN...SNOW...ETC/
    THUNDER OR FOG.

PAZ002>004-007>009-013>016-020>023-029>032-100200-
WESTERN PENNSYLVANIA

CITY           SKY/WX    TMP DP  RH WIND       PRES   REMARKS
ERIE           CLEAR     69  53  56 CALM      29.98R
MEADVILLE      CLOUDY    66  59  78 CALM      30.00R
FRANKLIN*      CLOUDY    64  55  72 CALM      30.01R
NEW CASTLE     NOT AVBL
BEAVER COUNTY  CLOUDY    72  57  60 N7        29.99R
BUTLER*        MOCLDY    72  55  56 N5        30.00R
PITTSBURGH INT MOCLDY    77  56  48 NW10      29.97R
PITTSBURGH     CLOUDY    77  52  41 W5        29.96R
INDIANA*       CLEAR     70  61  73 CALM      30.01R
LATROBE        PTCLDY    73  63  68 CALM      29.97R
WASHINGTON CO* PTCLDY    66  59  77 CALM      29.98R
$$

PAZ004>006-010>012-017>019-024>028-033>037-041-042-045-046-049>053-100200-
CENTRAL PENNSYLVANIA

CITY           SKY/WX    TMP DP  RH WIND       PRES   REMARKS
BRADFORD       MOCLDY    63  56  78 NW5       30.02R
DUBOIS         PTCLDY    69  59  70 N7        29.99R
CLEARFIELD     CLEAR     69  61  75 NE3       29.99R
JOHNSTOWN      CLEAR     70  56  61 NW5       30.01R
ALTOONA        CLEAR     72  62  71 CALM      29.98R
STATE COLLEGE  CLEAR     72  61  68 N6        29.98R
WILLIAMSPORT   CLEAR     70  67  90 CALM      29.93R
SELINSGROVE    PTCLDY    74  63  68 NE5       29.94R
FT INDIANTOWN  MOCLDY    74  71  88 CALM      29.92R
CAPITAL CITY   MOCLDY    79  66  64 SW9       29.91R
HARRISBURG     MOCLDY    80  69  69 SW12      29.91R
YORK           MOCLDY    77  67  71 S7        29.92R
$$

PAZ038>040-043-044-047-048-054-055-060>062-067>071-100200-
EASTERN PENNSYLVANIA

CITY           SKY/WX    TMP DP  RH WIND       PRES   REMARKS
SCRANTON       PTCLDY    68  62  81 CALM      29.95R
MOUNT POCONO   PTCLDY    67  59  75 W5        30.00R
ALLENTOWN      MOCLDY    74  68  81 CALM      29.91R
QUAKERTOWN*    MOCLDY    77  68  73 S3        29.93R
READING        MOCLDY    75  70  84 S3        29.91R
LANCASTER      MOCLDY    77  64  64 SW7       29.93R
COATESVILLE    MOCLDY    73  68  83 CALM      29.95R
POTTSTOWN      MOCLDY    78  66  66 S3        29.94R
BLUE BELL      MOCLDY    81  66  61 SW6       29.92R
DOYLESTOWN     MOCLDY    78  66  66 SW3       29.92R
WILLOW GROVE   NOT AVBL
NORTH PHILA    CLOUDY    84  68  58 SW10G17   29.93R
PHILADELPHIA   CLOUDY    82  69  64 SW10      29.92R
$$


USA.gov is the U.S. government's official web portal to all federal, state and local government web resources and services.